• In Belarus
  • List of Countries
  • For 7 days
  • Water Temperature
  • Satellite Maps
  • Weather Map
  • Weather Widgets
  • user-avatar
    Login

    Hourly Weather Przeclaw

    Today, 20 July, Saturday

    Time Temperature Precipitation Wind Pressure Humidity
    00:00 +17°C° 0 mm 2 mps 749 mmHg 86%
    01:00 +18°C° 0 mm 1 mps 749 mmHg 88%
    02:00 +18°C° 0 mm 1 mps 749 mmHg 90%
    03:00 +16°C° 0 mm 1 mps 749 mmHg 91%
    04:00 +16°C° 0 mm 1 mps 749 mmHg 92%
    05:00 +19°C° 0 mm 1 mps 749 mmHg 86%
    06:00 +20°C° 0 mm 1 mps 750 mmHg 80%
    07:00 +22°C° 0 mm 1 mps 750 mmHg 75%
    08:00 +23°C° 0 mm 1 mps 750 mmHg 67%
    09:00 +25°C° 0 mm 1 mps 750 mmHg 60%
    10:00 +27°C° 0 mm 2 mps 750 mmHg 53%
    11:00 +28°C° 0 mm 2 mps 750 mmHg 49%
    12:00 +29°C° 0 mm 2 mps 749 mmHg 44%
    13:00 +29°C° 0 mm 2 mps 749 mmHg 40%
    14:00 +30°C° 0 mm 2 mps 749 mmHg 39%
    15:00 +30°C° 0 mm 2 mps 749 mmHg 39%
    16:00 +30°C° 0 mm 2 mps 749 mmHg 38%
    17:00 +29°C° 0 mm 2 mps 749 mmHg 45%
    18:00 +28°C° 0 mm 2 mps 748 mmHg 51%
    19:00 +27°C° 0 mm 1 mps 748 mmHg 57%
    20:00 +25°C° 0.5 mm 2 mps 748 mmHg 64%
    21:00 +24°C° 0.5 mm 2 mps 748 mmHg 71%
    22:00 +21°C° 0.5 mm 2 mps 748 mmHg 77%
    23:00 +21°C° 1.4 mm 2 mps 748 mmHg 81%

    Tomorrow, 21 July, Sunday

    Time Temperature Precipitation Wind Pressure Humidity
    00:00 +20°C° 1.4 mm 2 mps 748 mmHg 85%
    01:00 +20°C° 1.4 mm 2 mps 748 mmHg 89%
    02:00 +20°C° 0.7 mm 3 mps 748 mmHg 89%
    03:00 +20°C° 0.7 mm 3 mps 748 mmHg 90%
    04:00 +20°C° 0.7 mm 3 mps 748 mmHg 91%
    05:00 +20°C° 0.1 mm 4 mps 748 mmHg 88%
    06:00 +21°C° 0.1 mm 4 mps 749 mmHg 86%
    07:00 +22°C° 0.1 mm 4 mps 749 mmHg 83%
    08:00 +23°C° 0 mm 4 mps 749 mmHg 75%
    09:00 +26°C° 0 mm 4 mps 750 mmHg 66%
    10:00 +27°C° 0 mm 4 mps 750 mmHg 58%
    11:00 +27°C° 0.8 mm 5 mps 750 mmHg 61%
    12:00 +26°C° 0.8 mm 5 mps 750 mmHg 64%
    13:00 +26°C° 0.8 mm 5 mps 750 mmHg 67%
    14:00 +26°C° 0.2 mm 5 mps 751 mmHg 61%
    15:00 +27°C° 0.2 mm 5 mps 751 mmHg 55%
    16:00 +27°C° 0.2 mm 5 mps 751 mmHg 49%
    17:00 +26°C° 0 mm 4 mps 751 mmHg 54%
    18:00 +25°C° 0 mm 4 mps 752 mmHg 58%
    19:00 +24°C° 0 mm 3 mps 752 mmHg 63%
    20:00 +22°C° 0 mm 3 mps 752 mmHg 68%
    21:00 +20°C° 0 mm 3 mps 753 mmHg 74%
    22:00 +19°C° 0 mm 3 mps 754 mmHg 79%
    23:00 +18°C° 0 mm 2 mps 754 mmHg 81%

    Day after tomorrow, 22 July, Monday

    Time Temperature Precipitation Wind Pressure Humidity
    00:00 +18°C° 0 mm 2 mps 754 mmHg 83%
    01:00 +17°C° 0 mm 2 mps 754 mmHg 85%
    02:00 +17°C° 0 mm 2 mps 754 mmHg 88%
    03:00 +16°C° 0 mm 2 mps 755 mmHg 91%
    04:00 +15°C° 0 mm 2 mps 755 mmHg 94%
    05:00 +16°C° 0 mm 2 mps 755 mmHg 88%
    06:00 +17°C° 0 mm 2 mps 755 mmHg 83%
    07:00 +18°C° 0 mm 3 mps 755 mmHg 77%
    08:00 +19°C° 0 mm 3 mps 756 mmHg 70%
    09:00 +21°C° 0 mm 3 mps 756 mmHg 62%
    10:00 +22°C° 0 mm 3 mps 756 mmHg 55%
    11:00 +24°C° 0 mm 3 mps 756 mmHg 52%
    12:00 +25°C° 0 mm 3 mps 756 mmHg 50%
    13:00 +26°C° 0 mm 4 mps 756 mmHg 47%
    14:00 +26°C° 0 mm 4 mps 756 mmHg 47%
    15:00 +26°C° 0 mm 4 mps 756 mmHg 47%
    16:00 +26°C° 0 mm 4 mps 755 mmHg 47%
    17:00 +24°C° 0 mm 3 mps 755 mmHg 52%
    18:00 +23°C° 0 mm 2 mps 755 mmHg 57%
    19:00 +21°C° 0 mm 2 mps 755 mmHg 62%
    20:00 +21°C° 0 mm 1 mps 755 mmHg 64%
    21:00 +20°C° 0 mm 1 mps 756 mmHg 65%
    22:00 +20°C° 0 mm 1 mps 756 mmHg 66%
    23:00 +20°C° 0 mm 1 mps 756 mmHg 65%

    23 July, Tuesday

    Time Temperature Precipitation Wind Pressure Humidity
    00:00 +20°C° 0 mm 1 mps 756 mmHg 65%
    01:00 +19°C° 0 mm 1 mps 755 mmHg 65%
    02:00 +19°C° 0 mm 1 mps 755 mmHg 67%
    03:00 +19°C° 0 mm 1 mps 755 mmHg 68%
    04:00 +19°C° 0 mm 1 mps 755 mmHg 70%
    05:00 +19°C° 0 mm 2 mps 755 mmHg 68%
    06:00 +19°C° 0 mm 2 mps 755 mmHg 66%
    07:00 +20°C° 0 mm 2 mps 755 mmHg 64%
    08:00 +23°C° 0 mm 2 mps 755 mmHg 60%
    09:00 +24°C° 0 mm 2 mps 755 mmHg 56%
    10:00 +26°C° 0 mm 2 mps 755 mmHg 52%
    11:00 +27°C° 0 mm 3 mps 755 mmHg 49%
    12:00 +28°C° 0 mm 3 mps 754 mmHg 46%
    13:00 +30°C° 0 mm 3 mps 754 mmHg 43%
    14:00 +30°C° 0 mm 3 mps 754 mmHg 43%
    15:00 +30°C° 0 mm 3 mps 754 mmHg 43%
    16:00 +30°C° 0 mm 4 mps 754 mmHg 42%
    17:00 +29°C° 0 mm 3 mps 753 mmHg 48%
    18:00 +28°C° 0 mm 2 mps 753 mmHg 54%
    19:00 +26°C° 0 mm 2 mps 753 mmHg 60%
    20:00 +25°C° 0 mm 1 mps 753 mmHg 64%
    21:00 +23°C° 0 mm 1 mps 753 mmHg 69%
    22:00 +21°C° 0 mm 1 mps 753 mmHg 74%
    23:00 +21°C° 0 mm 1 mps 753 mmHg 78%

    24 July, Wednesday

    Time Temperature Precipitation Wind Pressure Humidity
    00:00 +20°C° 0 mm 1 mps 753 mmHg 82%
    01:00 +17°C° 0 mm 0 mps 753 mmHg 86%
    02:00 +17°C° 0 mm 0 mps 753 mmHg 88%
    03:00 +17°C° 0 mm 0 mps 753 mmHg 89%
    04:00 +16°C° 0 mm 0 mps 753 mmHg 91%
    05:00 +18°C° 0 mm 0 mps 753 mmHg 85%
    06:00 +20°C° 0 mm 0 mps 753 mmHg 78%
    07:00 +23°C° 0 mm 1 mps 754 mmHg 72%
    08:00 +25°C° 0 mm 1 mps 753 mmHg 63%
    09:00 +27°C° 0 mm 1 mps 753 mmHg 54%
    10:00 +28°C° 0 mm 2 mps 753 mmHg 45%
    11:00 +29°C° 0 mm 2 mps 753 mmHg 41%
    12:00 +30°C° 0 mm 2 mps 753 mmHg 37%
    13:00 +31°C° 0 mm 2 mps 753 mmHg 33%
    14:00 +32°C° 0 mm 2 mps 753 mmHg 34%
    15:00 +32°C° 0 mm 2 mps 753 mmHg 35%
    16:00 +32°C° 0 mm 2 mps 752 mmHg 35%
    17:00 +30°C° 0 mm 2 mps 752 mmHg 42%
    18:00 +29°C° 0 mm 2 mps 752 mmHg 49%
    19:00 +28°C° 0 mm 2 mps 752 mmHg 55%
    20:00 +26°C° 0 mm 2 mps 752 mmHg 61%
    21:00 +25°C° 0 mm 2 mps 753 mmHg 66%
    22:00 +24°C° 0 mm 2 mps 753 mmHg 72%
    23:00 +23°C° 0 mm 2 mps 753 mmHg 74%

    25 July, Thursday

    Time Temperature Precipitation Wind Pressure Humidity
    00:00 +21°C° 0 mm 2 mps 753 mmHg 77%
    01:00 +22°C° 0 mm 1 mps 753 mmHg 80%
    02:00 +22°C° 0 mm 1 mps 753 mmHg 82%
    03:00 +21°C° 0 mm 1 mps 753 mmHg 83%
    04:00 +21°C° 0 mm 1 mps 753 mmHg 85%
    05:00 +22°C° 0 mm 1 mps 753 mmHg 79%
    06:00 +24°C° 0 mm 2 mps 753 mmHg 74%
    07:00 +25°C° 0 mm 2 mps 754 mmHg 68%
    08:00 +27°C° 0 mm 2 mps 754 mmHg 62%
    09:00 +29°C° 0 mm 3 mps 754 mmHg 56%
    10:00 +30°C° 0 mm 3 mps 754 mmHg 50%
    11:00 +31°C° 0 mm 3 mps 754 mmHg 47%
    12:00 +33°C° 0 mm 3 mps 754 mmHg 43%
    13:00 +34°C° 0 mm 3 mps 753 mmHg 39%
    14:00 +34°C° 0 mm 3 mps 753 mmHg 39%
    15:00 +34°C° 0 mm 3 mps 753 mmHg 38%
    16:00 +34°C° 0 mm 3 mps 752 mmHg 37%
    17:00 +33°C° 0 mm 3 mps 752 mmHg 42%
    18:00 +30°C° 0 mm 3 mps 752 mmHg 48%
    19:00 +29°C° 0 mm 3 mps 752 mmHg 53%
    20:00 +27°C° 0 mm 2 mps 752 mmHg 57%
    21:00 +26°C° 0 mm 2 mps 752 mmHg 61%
    22:00 +24°C° 0 mm 2 mps 753 mmHg 66%
    23:00 +24°C° 0 mm 2 mps 753 mmHg 69%
    Show more